Preview of NWS' New Version of Forecast
This preview is not operational and should not be used for support decisions.

Regional Weather Roundup (RWR)

Issued by National Weather Service (NWS)

                            
000
ASUS43 KDTX 200901
RWRMI 
MICHIGAN HOURLY REGIONAL WEATHER ROUNDUP
NATIONAL WEATHER SERVICE DETROIT/PONTIAC MI
400 AM EST WED FEB 20 2019

NOTE: "FAIR" INDICATES FEW OR NO CLOUDS BELOW 12,000 FEET WITH NO
SIGNIFICANT WEATHER AND/OR OBSTRUCTION TO VISIBILITY.

MIZ047>049-052>055-059>063-066>070-074>076-081>083-201000-
SOUTHEAST LOWER MICHIGAN
  
CITY           SKY/WX    TMP DP  RH WIND       PRES   REMARKS
ADRIAN         FAIR      25  18  74 E10       30.31F WCI  15          
ALMA           FAIR      18  12  77 E6        30.34F WCI  10          
ANN ARBOR      FAIR      22  16  78 NE8       30.31F WCI  12          
BAD AXE        FAIR      16  11  80 CALM      30.39F                  
CARO           FAIR      16  11  81 E3        30.38F                  
DETROIT CITY   FAIR      23  17  78 E9        30.37F WCI  13          
DETROIT        CLOUDY    24  15  68 NE10      30.33F WCI  14          
FLINT          FAIR      20  13  74 SE8       30.35F WCI  10          
GROSSE ILE     FAIR      25  17  72 NE12      30.31F WCI  14          
HILLSDALE      CLOUDY    25  18  73 E8        30.25F WCI  16          
HOWELL         FAIR      21  15  75 E8        30.31F WCI  12          

CITY           SKY/WX    TMP DP  RH WIND       PRES   REMARKS
JACKSON        CLOUDY    23  17  78 NE12      30.27F WCI  12          
LAMBERTVILLE   FAIR      27  21  78 E8        30.30F WCI  18          
LANSING        CLOUDY    21  13  71 E8        30.31F WCI  11          
LAPEER         FAIR      17  12  78 SE3       30.37F                  
MASON          CLOUDY    22  16  78 E7        30.29F WCI  13          
MONROE         FAIR      26  21  81 E12G20    30.30F WCI  16          
MT. CLEMENS    FAIR      18  16  91 NE3       30.37F                  
PONTIAC        FAIR      20  14  77 E8        30.33F WCI  10          
PORT HOPE        N/A     17   8  67 SE3       30.40F                  
PORT HURON     FAIR      16  14  93 CALM      30.41F                  
TRI CITIES     FAIR      17   8  67 E6        30.37F WCI   9          
MIDLAND        FAIR      18   9  68 E3        30.36F                  
TROY           FAIR      20  13  75 NE8       30.37F WCI  10          
SAGINAW HB     FAIR      19  10  68 E6        30.37F WCI  11          
$$
MIZ043>046-050>051-056>058-064>065-071>073-077>080-201000-
SOUTHWEST LOWER MICHIGAN
  
CITY           SKY/WX    TMP DP  RH WIND       PRES   REMARKS
BATTLE CREEK   CLOUDY    24  15  68 E12       30.23F WCI  13          
BENTON HARBOR  CLOUDY    28  19  69 E12       30.22F WCI  18          
BIG RAPIDS     CLOUDY    18  14  86 SE3       30.29F                  
COLDWATER      CLOUDY    28  20  74 E9        30.24F WCI  19          
FREMONT        CLOUDY    23  10  59 E6        30.29F WCI  15          
HOLLAND        CLOUDY    24  14  65 E12       30.25F WCI  13          
GRAND RAPIDS   CLOUDY    22  11  62 E10       30.27F WCI  11          
IONIA          CLOUDY    19  11  69 E8        30.29F WCI   9          
KALAMAZOO      CLOUDY    37  16  42 E10       30.23F WCI  30          
LUDINGTON      CLOUDY    23  13  66 E6        30.28F WCI  16          
MOUNT PLEASANT FAIR      14   8  77 CALM      30.34F                  
MUSKEGON       CLOUDY    24  11  57 E9        30.27F WCI  14          
SOUTH HAVEN    CLOUDY    28  17  66 E7        30.22F WCI  20          
$$
MIZ016>042-201000-
NORTHERN LOWER MICHIGAN
  
CITY           SKY/WX    TMP DP  RH WIND       PRES   REMARKS
ALPENA         FAIR       5   1  83 CALM      30.38F                  
BEAVER ISLAND  CLOUDY    22  19  85 CALM      30.33F                  
BELLAIRE       FAIR       9   6  86 CALM      30.35F                  
CADILLAC       FAIR      17  10  77 E5        30.26F WCI   9          
CHARLEVOIX     CLOUDY    15  11  84 CALM      30.36F                  
FRANKFORT      CLOUDY    23  14  67 SE7       30.29F WCI  15          
GAYLORD        FAIR      11   7  84 CALM      30.31F                  
GRAYLING       FAIR       8   5  89 CALM      30.31F                  
HARBOR SPRINGS CLOUDY    11   8  89 NE5       30.34F WCI   3          
HOUGHTON LAKE  FAIR      12   8  84 E6        30.33F WCI   3          
MANISTEE       CLOUDY    21  15  78 E8        30.29F WCI  11          
OSCODA         FAIR       8   4  84 CALM      30.40F                  
PELLSTON       CLOUDY     1  -3  83 CALM      30.35F                  
ROGERS CITY    FAIR      16  10  78 S8        30.38F WCI   5          
TRAVERSE CITY  FAIR      20  12  71 S5        30.32F WCI  13          
$$
MIZ007>008-015-201000-
EASTERN UPPER MICHIGAN
  
CITY           SKY/WX    TMP DP  RH WIND       PRES   REMARKS
KINROSS        CLOUDY    10   8  92 S7        30.34F WCI  -1          
MACKINAC ISLAN CLOUDY    17  12  80 S8        30.34F WCI   6          
NEWBERRY       FAIR       2   0  91 MISG      30.30F                  
S. S. MARIE    CLOUDY     9   6  88 E5        30.34F WCI   1          
MUNISING         N/A     10  32 100 SW7       30.29F WCI  -1          
$$
MIZ004>006-011>014-085-201000-
CENTRAL UPPER MICHIGAN
  
CITY           SKY/WX    TMP DP  RH WIND       PRES   REMARKS
MANISTIQUE     FAIR       2  -3  80 CALM      30.30F                  
MENOMINEE      MOCLDY    10   6  84 NE3       30.29F                  
SAWYER-GWINN   FAIR       8   5  86 CALM      30.22F                  
$$
MIZ001>003-009>011-084-201000-
WESTERN UPPER MICHIGAN
  
CITY           SKY/WX    TMP DP  RH WIND       PRES   REMARKS
IRON MOUNTAIN  FAIR       1  -3  83 CALM      30.23F                  
HOUGHTON       FAIR       4  -2  76 CALM      30.19F                  
COPPER HARBOR    N/A     12   3  67 SW6       30.23F WCI   3          
IRONWOOD       FAIR       4  -1  80 E5        30.18F WCI  -5          
$$

ABBREVIATIONS USED IN REMARKS
   TC - TEMPERATURE IN CELSIUS
  WCI - WIND CHILL INDEX
   HX - HEAT INDEX
  VSB - VISIBILITY